TANCREDO-1

Last updated on Oct. 19, 2017, 12:15 a.m. UTC

1 41931U 98067KT  17290.98270503  .14164078  12479-4  76733-3 0  9998
2 41931  51.6104 115.9004 0006182 280.1451  79.8879 16.42240901 42996

Satellite is not in orbit.